User: anonymous   Login
Location: *
(90.0000°N, 180.0000°W)
Time: 18:12:20
(UTC+02:00)
Language:

Cosmos 1825 - Orbit

View from above orbital plane
View from above orbital plane
View from above satellite
View from above satellite

Ground track
Ground track

The orbit data is extracted from the following two-line orbital elements,

1 17566U 87024A   15212.65599612  .00002247  00000-0  11464-3 0  9994
2 17566 082.5042 249.7551 0005817 085.3921 274.7976 15.16244454549714
Epoch (UTC): 31 July 2015 15:44:38
Eccentricity: 0.0005817
inclination: 82.5042°
perigee height: 513 km
apogee height: 521 km
right ascension of ascending node: 249.7551°
argument of perigee: 85.3921°
revolutions per day: 15.16244454
mean anomaly at epoch: 274.7976°
orbit number at epoch: 54971

The dashed part of the orbit path shows where the satellite is in the earth's shadow,  

DLR